Вернуться в каталог

RASSVET-3 14

АктивенНаукаPO
NORAD 68373·PAYLOAD·🇷🇺 Russia

Запущен Mar 23, 2026 с Plesetsk Cosmodrome

Loading…

Ближайшие Пролёты (ближайшие 24 часа)

TLE

СвежийSource: Space-Track

Эпоха: Sep 14, 2026, 07:50 UTC

1 68373U 26061P   26257.32669017  .00023015  00000-0  18010-3 0  9992
2 68373  82.2879 273.7121 0011575 141.3248 218.8845 15.71351972 27567

Отслеживайте RASSVET-3 14 в реальном времени с AllMySat

Download on the App Store